www.pogodaiklimat.ru

Погода и климат >> Архив погоды >> Россия >> Нижегородская область >> Лукоянов


ПОГОДА в Лукоянове

  • Прогноз погоды в Лукоянове
  • Монитор погоды в Лукоянове
  • Климат города

АРХИВ ПОГОДЫ в Лукоянове

Время (UTC), дата Ветер
(напр.,м/с)
 
Видим.   Явления Облачность Т
(С)
Тd
(С)
f
(%)
Тe
(С)
Тes
(С)
Комфортность P
(гПа)
Po
(гПа)
Тmin
(С)
Tmax
(С)
R
(мм)
R24
(мм)
S
(см)
06 14.02 В 1-2
{3}
10 км ясно -13.4 -14.7 90 -16 -15 1033.9 1004.6 -15.4
09 14.02 В 1-2
{3}
20 км ясно -10.6 -12.6 85 -13 -9 1034.5 1005.6
12 14.02 В 2-3
{4}
20 км ясно -9.0 -12.9 73 -13 -12 1034.6 1005.8
15 14.02 СВ 1
{4}
10 км ясно -11.6 -13.6 85 -14 -14 1035.8 1006.7 -9.0
18 14.02 СВ 1-3
{4}
10 км ясно -13.3 -15.3 85 -16 -16 1036.2 1006.9
21 14.02 В 1-3
{4}
10 км ясно -13.8 -16.5 80 -16 -16 1037.0 1007.5
00 15.02 В 1-3
{4}
10 км ясно -14.9 -16.9 85 -17 -17 1038.1 1008.5
03 15.02 В 1-3
{3}
10 км ясно -14.8 -16.8 85 -17 -17 1038.5 1008.9 -15.0 24
06 15.02 В 1-2
{3}
20 км 3/0
[Ci fib]
-14.6 -15.9 90 -17 -16 1039.4 1009.9 -15.8
09 15.02 ЮВ 2-3
{3}
20 км ясно -10.3 -13.1 80 -15 -11 1040.1 1011.0
12 15.02 В 3-5
{5}
20 км ясно -8.4 -12.6 72 -14 -13 1039.8 1011.0
15 15.02 ЮВ 2-3
{5}
10 км ясно -11.6 -15.1 75 -16 -16 1040.5 1011.3 -8.3
18 15.02 ЮВ 2-3
{4}
10 км ясно -13.5 -15.5 85 -18 -18 1040.8 1011.6
21 15.02 Ю 2-3
{5}
10 км ясно -12.8 -14.8 85 -17 -17 1040.7 1011.5
00 16.02 ЮВ 2-3
{4}
10 км ясно -12.4 -14.4 85 -17 -17 1040.8 1011.5
03 16.02 ЮВ 2-4
{4}
10 км 10/0
[Ci fib]
-10.7 -12.7 85 -15 -15 1040.3 1011.1 -13.9 23
06 16.02 ЮВ 2-4
{5}
10 км 10/0
[As op]
-9.6 -12.2 81 -14 -14 1040.3 1011.3
09 16.02 Ю 2-5
{5}
10 км 10/0
[Ac und]
-5.8 -10.6 69 -10 -9 1040.0 1011.3
12 16.02 ЮВ 2-4
{5}
10 км 10/0
[Ac und]
-4.4 -10.4 63 -8 -8 1039.0 1010.6
15 16.02 ЮВ 3-5
{5}
10 км 10/0
[Ac und]
-5.8 -9.7 74 -11 -11 1038.8 1010.2 -4.4
18 16.02 ЮВ 3-5
{5}
10 км 10/0
[Ac und]
-6.8 -10.2 77 -12 -12 1038.5 1009.8
21 16.02 ЮВ 4-6
{7}
10 км 10/0
[Ac und]
-6.8 -10.6 74 -13 -13 1037.6 1008.9
00 17.02 ЮВ 2-5
{7}
10 км 10/0
[Ac und]
-7.3 -11.0 75 -12 -12 1037.1 1008.4
03 17.02 ЮВ 3-5
{7}
10 км ясно -9.6 -13.2 75 -15 -15 1036.6 1007.7 -9.6 23
06 17.02 ЮВ 3-6
{7}
10 км 10/0
[Ac und]
-10.2 -13.8 75 -16 -16 1036.2 1007.2 -10.5
09 17.02 ЮВ 3-7
{8}
10 км 8/0
[Ac und]
-7.4 -12.8 65 -13 -12 1034.8 1006.2
12 17.02 ЮВ 3-6
{7}
10 км 10/3 600 м
[Cb cap Ac und]
-6.0 -10.8 69 -11 -11 1033.3 1004.8
15 17.02 ЮВ 3-7
{8}
10 км 10/0
[Ac As]
-6.8 -12.0 66 -12 -12 1032.6 1004.0 -6.0
18 17.02 ЮВ 4-8
{9}
10 км 10/0
[Ac und]
-6.0 -10.8 69 -12 -12 1031.2 1002.8
21 17.02 ЮВ 4-8
{9}
10 км 10/0
[As op]
-7.0 -11.3 71 -13 -13 1030.3 1001.8
00 18.02 ЮВ 4-8
{9}
10 км 10/0
[As op]
-8.4 -12.6 72 -15 -15 1029.6 1000.8
03 18.02 ЮВ 4-6
{8}
10 км 10/0
[As op]
-8.2 -11.4 78 -15 -15 1028.4 999.8 -8.5 23
06 18.02 ЮВ 4-8
{8}
10 км 10/0
[As op]
-7.6 -11.1 76 -14 -14 1027.4 999.0 -8.7
09 18.02 ЮВ 5-8
{9}
10 км слабый снег 10/0
[As op]
-6.2 -8.9 81 -13 -13 1026.3 998.0
12 18.02 ЮВ 3-5
{9}
10 км слабый снег 10/0
[As op]
-5.5 -8.1 82 -11 -11 1024.8 996.7
15 18.02 В 3-5
{7}
10 км слабый снег 10/0
[As op]
-6.3 -7.8 89 -12 -12 1022.8 994.6 -5.4 0.7
18 18.02 ЮВ 3-6
{6}
10 км слабый снег 10/0
[As op]
-6.6 -7.8 91 -12 -12 1022.2 994.0
21 18.02 ЮВ 3-7
{8}
4000 м слабый снег 10/0
[As op]
-8.4 -9.9 89 -14 -14 1021.2 992.8
00 19.02 Ю 2-4
{7}
10 км {снег} ясно -10.0 -11.7 87 -15 -15 1021.3 992.7
03 19.02 Ю 1 10 км ясно -11.4 -13.4 85 -14 -14 1020.5 991.9 -11.4 2 25
06 19.02 ЮВ 2-3
{4}
10 км 10/0
[Ci fib]
-11.8 -13.1 90 -16 -15 1020.6 991.8 -12.0
09 19.02 ЮЗ 2-3
{5}
20 км 10/0
[Ac und]
-6.0 -9.1 79 -10 -9 1019.8 991.7
12 19.02 Ю 2-4
{4}
10 км 10/0
[Ac und]
-4.8 -7.6 81 -9 -9 1018.8 991.0
15 19.02 ЮВ 2-3
{4}
10 км 10/0
[As op]
-6.4 -8.0 88 -11 -11 1018.9 990.8 -3.1
18 19.02 ЮВ 2-4
{5}
10 км 10/0
[As op]
-5.9 -7.0 92 -10 -10 1017.9 989.9
21 19.02 Ю 1-2
{4}
10 км слабый снег 10/0
[As op]
-5.7 -6.4 95 -8 -8 1016.7 988.9
00 20.02 ЮЗ 1-3
{4}
10 км слабый снег 10/0
[As op]
-4.5 -5.1 96 -7 -7 1016.2 988.5
03 20.02 ЮЗ 2-3
{5}
10 км слабый снег 10/0
[As op]
-5.1 -5.4 98 -10 -10 1015.4 987.6 -6.4 0.6 25
06 20.02 ЮЗ 2-3
{5}
10 км {снег} 10/0
[As op]
-4.8 -6.1 91 -9 -9 1015.1 987.4
09 20.02 ЮЗ 3-4
{6}
4000 м слабый ливневой снег 10/4 600 м
[Cb cap Ac und]
-3.6 -6.1 83 -9 -8 1015.3 987.6
12 20.02 З 2-4
{5}
10 км {ливн. осадки} 10/3 600 м
[Cb cap Ac und]
-4.0 -5.2 91 -8 -8 1015.4 987.6
15 20.02 З 1-2
{4}
10 км слабый ливневой снег 10/3 600 м
[Cb cap Ac und]
-6.0 -8.3 84 -8 -8 1015.9 987.9 -3.6 0.3
18 20.02 З 3 10 км {ливн. осадки} 10/10 600 м
[]
-7.4 -8.3 93 -13 -13 1016.6 988.4
21 20.02 З 2-3
{5}
10 км 10/0
[Ac und]
-10.4 -11.0 95 -15 -15 1017.1 988.7
00 21.02 З 2-4
{6}
10 км 10/0
[As op]
-10.0 -10.8 94 -15 -15 1017.6 989.1

 

Местоположение метеостанции Лукоянов (Нижегородская область, Россия): широта 55.03 долгота 44.50 высота над уровнем моря 219 м.

В архиве по умолчанию представлена погода в Лукоянове за последнюю неделю. Архивные данные за месяц целиком и за предыдущие месяцы, начиная с января 2011 года, Вы можете получить, выбрав интересующий диапазон дат из раскрывающегося списка и нажав кнопку "Ввод!".

Внимание! Время в таблицах - всемирное. Для получения местного времени необходимо прибавить поправку, которая в Лукоянове равна 3 ч.

Смотрите также архив погоды в соседних городах и на ближайших метеорологических станциях:

Погода в Большом Болдино (Нижегородская область, Россия) (52 км)
Погода в Арзамасе (Нижегородская область, Россия) (59 км)
Погода в Краснослободске (Мордовия, Россия) (82 км)
Погода в Сергаче (Нижегородская область, Россия) (84 км)
Погода в Дальнем Константиново (Нижегородская область, Россия) (90 км)
Погода в Темникове (Мордовия, Россия) (93 км)
Погода в Саранске (Мордовия, Россия) (111 км)
Погода в Лысково (Нижегородская область, Россия) (114 км)
Погода в Порецком (Чувашия, Россия) (118 км)
Погода в Инсаре (Мордовия, Россия) (129 км)

Пояснения к столбцам:

Ветер - указаны скорость ветра в м/с - средняя за 10 мин, порывы в срок и между сроками (в фигурных скобках) и направление, откуда дует ветер: С - северный, СВ - северо-восточный, В - восточный, ЮВ - юго-восточный, Ю - южный, ЮЗ - юго-западный, З - западный, СЗ - северо-западный.
Видимость - горизонтальная дальность видимости в метрах или километрах. При видимости от 1 до 10 км при отсутствии осадков обычно наблюдается дымка, при ухудшении видимости до 1 км и менее - туман. В сухую погоду видимость может ухудшаться дымом, пылью или мглою.
Явления - указаны атмосферные явления, наблюдавшиеся в срок или в последний час перед сроком; фигурными скобками обозначены явления, наблюдавшиеся между сроками (за 1-3 часа до срока); квадратными скобками обозначены град или гололедные отложения с указанием их диаметра в мм.
Облачность - указаны через наклонную черту общая и нижняя облачность в баллах и высота нижней границы облаков в метрах; квадратными скобками обозначены формы облаков: Ci - перистые, Cs - перисто-слоистые, Cc - перисто-кучевые, Ac - высококучевые, As - высокослоистые, Sc - слоисто-кучевые, Ns - слоисто-дождевые, Cu - кучевые, Cb - кучево-дождевые. Подробнее классификацию облаков см. в Атласе облаков (PDF).
T - Температура воздуха - температура, измеренная на высоте 2 м над землей.
Td - Температура точки росы - температура, при понижении до которой содержащийся в воздухе водяной пар достигнет насыщения.
f - Относительная влажность воздуха - влажноcть воздуха, измеренная на высоте 2 м над землей.
Te - Эффективная температура - температура, которую ощущает одетый по сезону человек в тени. Характеристика душности погоды. При расчете учитывается влияние влажности воздуха и скорости ветра на теплоощущения человека.
Tes - Эффективная температура на солнце - температура, которую ощущает человек, с поправкой на солнечный нагрев. Характеристика знойности погоды. Зависит от высоты солнца над горизонтом, облачности и скорости ветра. Ночью, в пасмурную погоду, а также при ветре 12 м/с и более поправка равна нулю.
P - Атмосферное давление - приведенное к уровню моря атмосферное давление.
Po - Атмосферное давление - измеренное на уровне метеостанции атмосферное давление.
Tmin - Минимальная температура - минимум температуры воздуха на высоте 2 м над землей.
Tmax - Максимальная температура - максимум температуры воздуха на высоте 2 м над землей.
R - Количество осадков - Количество выпавших осадков за период времени, мм. При наведении курсора мыши на число - период времени, за который выпало указанное количество осадков.
R24 - Количество осадков - Количество выпавших осадков за 24 часа, мм.
S - Снежный покров - Высота снежного покрова, см. При наведении курсора мыши на число - состояние снежного покрова и степень покрытия местности в баллах.